| time (UTC) | temp F | wind direction | speed knots | gust knots | rain 1hr in | rain 24hr in | rain mn in | humidity % | barometer mb |
| 20260506202414 | 47 | 157 | 1.7 | 3.5 | 0.00 | 0.04 | 0.04 | 83 | 1006.1 |
| 20260506201407 | 47 | 90 | 0.9 | 5.2 | 0.00 | 0.04 | 0.04 | 83 | 1006.2 |
| 20260506200401 | 48 | 112 | 1.7 | 6.1 | 0.00 | 0.04 | 0.04 | 82 | 1006.3 |
| 20260506195358 | 48 | 90 | 1.7 | 3.5 | 0.00 | 0.04 | 0.04 | 82 | 1006.5 |
| 20260506194349 | 48 | 135 | 0.9 | 3.5 | 0.00 | 0.04 | 0.04 | 82 | 1006.7 |
| 20260506193344 | 48 | 157 | 1.7 | 3.5 | 0.00 | 0.04 | 0.04 | 82 | 1006.6 |
| 20260506192337 | 48 | 157 | 0.9 | 3.5 | 0.00 | 0.04 | 0.04 | 83 | 1006.6 |
| 20260506191330 | 48 | 157 | 2.6 | 7.0 | 0.01 | 0.04 | 0.04 | 82 | 1006.5 |
| 20260506190327 | 48 | 112 | 0.9 | 6.1 | 0.01 | 0.04 | 0.04 | 83 | 1007.0 |
| 20260506185318 | 48 | 112 | 1.7 | 5.2 | 0.01 | 0.04 | 0.04 | 83 | 1006.7 |
| 20260506184311 | 48 | 157 | 0.9 | 9.6 | 0.01 | 0.04 | 0.04 | 82 | 1006.7 |
| 20260506183305 | 48 | 135 | 0.0 | 6.1 | 0.01 | 0.04 | 0.04 | 83 | 1006.7 |
| 20260506182259 | 48 | 135 | 1.7 | 5.2 | 0.01 | 0.04 | 0.04 | 82 | 1006.5 |
| 20260506181256 | 49 | 135 | 0.0 | 5.2 | 0.00 | 0.02 | 0.02 | 83 | 1006.1 |
| 20260506180249 | 50 | 135 | 1.7 | 5.2 | 0.00 | 0.02 | 0.02 | 80 | 1006.0 |
| 20260506175240 | 51 | 180 | 1.7 | 3.5 | 0.00 | 0.02 | 0.02 | 74 | 1006.3 |
| 20260506174234 | 52 | 202 | 1.7 | 3.5 | 0.00 | 0.02 | 0.02 | 70 | 1006.1 |
| 20260506173229 | 53 | 180 | 0.9 | 3.5 | 0.00 | 0.02 | 0.02 | 66 | 1005.9 |
| 20260506172224 | 54 | 135 | 1.7 | 3.5 | 0.00 | 0.02 | 0.02 | 66 | 1005.5 |
| 20260506171215 | 55 | 180 | 0.0 | 5.2 | 0.00 | 0.02 | 0.02 | 67 | 1005.5 |
| 20260506170209 | 55 | 112 | 1.7 | 5.2 | 0.00 | 0.02 | 0.02 | 65 | 1005.3 |
| 20260506165203 | 57 | 157 | 0.9 | 6.1 | 0.00 | 0.02 | 0.02 | 63 | 1005.4 |
| 20260506164157 | 57 | 135 | 2.6 | 6.1 | 0.00 | 0.02 | 0.02 | 61 | 1005.5 |
| 20260506163155 | 57 | 135 | 0.0 | 3.5 | 0.00 | 0.02 | 0.02 | 61 | 1005.4 |
| 20260506162144 | 57 | 157 | 1.7 | 5.2 | 0.00 | 0.02 | 0.02 | 62 | 1005.3 |
| 20260506161138 | 57 | 135 | 1.7 | 6.1 | 0.00 | 0.02 | 0.02 | 62 | 1005.1 |
| 20260506160133 | 57 | 112 | 2.6 | 9.6 | 0.00 | 0.02 | 0.02 | 61 | 1005.3 |
| 20260506155126 | 57 | 112 | 3.5 | 11.3 | 0.00 | 0.02 | 0.02 | 61 | 1005.1 |
| 20260506154122 | 57 | 157 | 3.5 | 9.6 | 0.00 | 0.02 | 0.02 | 61 | 1005.6 |
| 20260506153113 | 57 | 112 | 1.7 | 9.6 | 0.00 | 0.02 | 0.02 | 61 | 1005.6 |
| 20260506152108 | 58 | 112 | 1.7 | 7.8 | 0.00 | 0.02 | 0.02 | 63 | 1005.8 |
| 20260506151101 | 58 | 112 | 3.5 | 9.6 | 0.00 | 0.02 | 0.02 | 63 | 1006.0 |
| 20260506150056 | 58 | 112 | 1.7 | 6.1 | 0.00 | 0.02 | 0.02 | 66 | 1006.4 |
| 20260506145052 | 58 | 90 | 2.6 | 7.0 | 0.00 | 0.02 | 0.02 | 66 | 1006.6 |
| 20260506144043 | 59 | 157 | 1.7 | 5.2 | 0.00 | 0.02 | 0.02 | 61 | 1007.3 |
| 20260506143037 | 60 | 180 | 1.7 | 5.2 | 0.00 | 0.02 | 0.02 | 59 | 1006.9 |
| 20260506142029 | 60 | 90 | 3.5 | 7.0 | 0.00 | 0.02 | 0.02 | 62 | 1006.8 |
| 20260506141024 | 61 | 112 | 3.5 | 9.6 | 0.00 | 0.02 | 0.02 | 61 | 1006.9 |
| 20260506140021 | 61 | 135 | 3.5 | 11.3 | 0.00 | 0.02 | 0.02 | 60 | 1007.1 |
| 20260506135011 | 62 | 67 | 5.2 | 13.0 | 0.00 | 0.02 | 0.02 | 58 | 1006.8 |
| 20260506134005 | 63 | 90 | 7.8 | 12.2 | 0.00 | 0.02 | 0.02 | 57 | 1006.6 |
| 20260506133000 | 64 | 112 | 1.7 | 7.8 | 0.00 | 0.02 | 0.02 | 54 | 1006.6 |
| 20260506131953 | 64 | 112 | 3.5 | 11.3 | 0.00 | 0.02 | 0.02 | 54 | 1007.0 |
| 20260506130951 | 64 | 202 | 4.3 | 7.8 | 0.00 | 0.02 | 0.02 | 53 | 1007.2 |
| 20260506125941 | 64 | 157 | 3.5 | 12.2 | 0.00 | 0.02 | 0.02 | 50 | 1007.3 |
| 20260506124935 | 63 | 157 | 3.5 | 11.3 | 0.00 | 0.02 | 0.02 | 53 | 1007.4 |
| 20260506123929 | 62 | 112 | 3.5 | 13.0 | 0.00 | 0.02 | 0.02 | 51 | 1007.2 |
| 20260506122922 | 62 | 90 | 2.6 | 12.2 | 0.00 | 0.02 | 0.02 | 51 | 1007.5 |
| 20260506121919 | 61 | 157 | 1.7 | 7.8 | 0.00 | 0.02 | 0.02 | 51 | 1007.7 |
| 20260506120910 | 62 | 90 | 2.6 | 12.2 | 0.00 | 0.02 | 0.02 | 49 | 1007.8 |
| 20260506115909 | 62 | 90 | 3.5 | 9.6 | 0.00 | 0.02 | 0.02 | 49 | 1007.9 |
| 20260506114857 | 62 | 90 | 3.5 | 9.6 | 0.00 | 0.02 | 0.02 | 48 | 1008.4 |
| 20260506113850 | 61 | 90 | 3.5 | 11.3 | 0.00 | 0.02 | 0.02 | 51 | 1007.9 |
| 20260506112849 | 62 | 135 | 3.5 | 11.3 | 0.00 | 0.02 | 0.02 | 49 | 1008.4 |
| 20260506111839 | 61 | 135 | 3.5 | 9.6 | 0.00 | 0.02 | 0.02 | 49 | 1008.2 |
| 20260506110832 | 62 | 45 | 3.5 | 14.8 | 0.00 | 0.02 | 0.02 | 51 | 1008.3 |
| 20260506105827 | 61 | 90 | 2.6 | 11.3 | 0.00 | 0.02 | 0.02 | 49 | 1008.5 |
| 20260506104820 | 62 | 112 | 3.5 | 9.6 | 0.00 | 0.02 | 0.02 | 49 | 1008.6 |
| 20260506103816 | 61 | 112 | 2.6 | 9.6 | 0.00 | 0.02 | 0.02 | 50 | 1008.6 |
| 20260506102808 | 61 | 90 | 3.5 | 12.2 | 0.00 | 0.02 | 0.02 | 50 | 1008.7 |
| 20260506101801 | 60 | 112 | 2.6 | 12.2 | 0.00 | 0.02 | 0.02 | 49 | 1008.9 |
| 20260506100755 | 60 | 135 | 5.2 | 9.6 | 0.00 | 0.02 | 0.02 | 52 | 1009.2 |
| 20260506095749 | 59 | 112 | 3.5 | 7.0 | 0.00 | 0.02 | 0.02 | 51 | 1009.2 |
| 20260506094746 | 60 | 112 | 3.5 | 9.6 | 0.00 | 0.02 | 0.02 | 52 | 1009.3 |
| 20260506093737 | 60 | 112 | 3.5 | 9.6 | 0.00 | 0.02 | 0.02 | 51 | 1009.4 |
| 20260506092731 | 59 | 90 | 3.5 | 11.3 | 0.00 | 0.02 | 0.02 | 50 | 1009.4 |
| 20260506091725 | 58 | 112 | 3.5 | 12.2 | 0.00 | 0.02 | 0.02 | 53 | 1009.4 |
| 20260506090718 | 58 | 67 | 1.7 | 7.8 | 0.00 | 0.02 | 0.02 | 54 | 1009.4 |
| 20260506085716 | 58 | 90 | 2.6 | 7.8 | 0.00 | 0.02 | 0.02 | 51 | 1009.3 |
| 20260506084706 | 57 | 90 | 3.5 | 9.6 | 0.00 | 0.02 | 0.02 | 53 | 1009.5 |
| 20260506083659 | 57 | 90 | 2.6 | 7.0 | 0.00 | 0.02 | 0.02 | 50 | 1009.5 |
| 20260506082653 | 57 | 112 | 3.5 | 9.6 | 0.00 | 0.02 | 0.02 | 48 | 1009.6 |
| 20260506081647 | 57 | 135 | 3.5 | 7.8 | 0.00 | 0.02 | 0.02 | 49 | 1009.6 |
| 20260506080644 | 56 | 112 | 3.5 | 11.3 | 0.00 | 0.02 | 0.02 | 49 | 1009.6 |
| 20260506072617 | 53 | 135 | 3.5 | 9.6 | 0.00 | 0.02 | 0.02 | 50 | 1010.1 |
| 20260506071613 | 53 | 112 | 2.6 | 7.0 | 0.00 | 0.02 | 0.02 | 55 | 1010.1 |
| 20260506070604 | 51 | 135 | 1.7 | 6.1 | 0.00 | 0.02 | 0.02 | 56 | 1010.1 |
| 20260506061532 | 49 | 112 | 1.7 | 3.5 | 0.00 | 0.02 | 0.02 | 62 | 1010.4 |
| 20260506060527 | 48 | 90 | 0.9 | 3.5 | 0.00 | 0.02 | 0.02 | 62 | 1010.5 |
| 20260506050450 | 48 | 112 | 1.7 | 7.8 | 0.00 | 0.02 | 0.02 | 60 | 1010.3 |
| 20260506044440 | 48 | 90 | 2.6 | 7.8 | 0.00 | 0.02 | 0.02 | 63 | 1010.7 |
| 20260506043431 | 47 | 90 | 1.7 | 7.0 | 0.00 | 0.02 | 0.02 | 66 | 1010.3 |
| 20260506042426 | 47 | 112 | 1.7 | 5.2 | 0.00 | 0.02 | 0.02 | 68 | 1010.7 |
| 20260506041418 | 47 | 112 | 0.9 | 6.1 | 0.00 | 0.02 | 0.02 | 64 | 1010.8 |
| 20260506040412 | 48 | 112 | 2.6 | 7.8 | 0.00 | 0.02 | 0.02 | 62 | 1010.7 |
| 20260506035408 | 48 | 135 | 2.6 | 9.6 | 0.00 | 0.02 | 0.02 | 63 | 1010.5 |
| 20260506034400 | 48 | 135 | 0.9 | 5.2 | 0.00 | 0.02 | 0.02 | 65 | 1010.5 |
| 20260506033354 | 48 | 112 | 0.9 | 6.1 | 0.00 | 0.02 | 0.02 | 68 | 1010.3 |
| 20260506032348 | 48 | 112 | 1.7 | 6.1 | 0.00 | 0.02 | 0.02 | 68 | 1010.2 |
| 20260506031341 | 48 | 112 | 1.7 | 7.0 | 0.00 | 0.02 | 0.02 | 68 | 1010.3 |
| 20260506030338 | 48 | 90 | 3.5 | 6.1 | 0.00 | 0.02 | 0.02 | 68 | 1010.2 |
| 20260506025330 | 48 | 112 | 3.5 | 7.8 | 0.00 | 0.02 | 0.02 | 69 | 1010.3 |
| 20260506024323 | 48 | 112 | 1.7 | 7.0 | 0.00 | 0.02 | 0.02 | 71 | 1010.3 |
| 20260506023316 | 48 | 157 | 1.7 | 5.2 | 0.00 | 0.02 | 0.02 | 72 | 1010.2 |
| 20260506022310 | 48 | 135 | 1.7 | 7.0 | 0.00 | 0.02 | 0.02 | 73 | 1009.9 |
| 20260506021307 | 48 | 157 | 2.6 | 7.0 | 0.00 | 0.02 | 0.02 | 74 | 1009.9 |
| 20260506020258 | 48 | 112 | 1.7 | 6.1 | 0.00 | 0.02 | 0.02 | 77 | 1009.8 |
| 20260506015251 | 48 | 135 | 1.7 | 7.8 | 0.00 | 0.02 | 0.02 | 79 | 1009.7 |
| 20260506014245 | 49 | 202 | 0.9 | 7.0 | 0.00 | 0.02 | 0.02 | 82 | 1009.5 |
| 20260506013240 | 49 | 112 | 1.7 | 6.1 | 0.00 | 0.02 | 0.02 | 83 | 1009.5 |
| 20260506012237 | 49 | 157 | 2.6 | 6.1 | 0.00 | 0.02 | 0.02 | 87 | 1009.1 |
| 20260506011227 | 49 | 135 | 1.7 | 5.2 | 0.00 | 0.02 | 0.02 | 89 | 1009.4 |
| 20260506010221 | 49 | 135 | 0.9 | 3.5 | 0.00 | 0.02 | 0.02 | 90 | 1009.4 |
| 20260506005215 | 50 | 135 | 0.9 | 3.5 | 0.00 | 0.02 | 0.02 | 90 | 1009.4 |
| 20260506004209 | 49 | 157 | 1.7 | 3.5 | 0.00 | 0.02 | 0.02 | 89 | 1009.4 |
| 20260506003205 | 50 | 135 | 0.0 | 3.5 | 0.00 | 0.02 | 0.02 | 89 | 1009.3 |
| 20260506002156 | 50 | 135 | 0.9 | 1.7 | 0.00 | 0.02 | 0.02 | 88 | 1009.4 |
| 20260506001149 | 50 | 135 | 0.0 | 1.7 | 0.01 | 0.02 | 0.02 | 87 | 1009.4 |
| 20260506000143 | 50 | 135 | 0.9 | 1.7 | 0.01 | 0.02 | 0.02 | 87 | 1009.3 |
| 20260505235151 | 50 | 135 | 0.0 | 0.0 | 0.01 | 0.02 | 0.02 | 87 | 1009.4 |
| 20260505234159 | 50 | 135 | 0.0 | 0.0 | 0.01 | 0.02 | 0.02 | 88 | 1009.1 |
| 20260505233125 | 50 | 135 | 0.0 | 1.7 | 0.01 | 0.02 | 0.02 | 87 | 1009.1 |
| 20260505232119 | 51 | 135 | 0.0 | 0.0 | 0.00 | 0.01 | 0.02 | 87 | 1008.8 |
| 20260505231113 | 51 | 135 | 0.0 | 0.0 | 0.00 | 0.01 | 0.01 | 86 | 1009.2 |
| 20260505230106 | 50 | 135 | 0.0 | 0.0 | 0.00 | 0.01 | 0.01 | 88 | 1009.1 |
| 20260505225103 | 51 | 135 | 0.0 | 0.0 | 0.00 | 0.01 | 0.01 | 86 | 1009.0 |
| 20260505224053 | 51 | 135 | 0.0 | 1.7 | 0.00 | 0.01 | 0.01 | 87 | 1008.8 |
| 20260505223047 | 50 | 135 | 1.7 | 1.7 | 0.00 | 0.01 | 0.01 | 88 | 1008.7 |
| 20260505222042 | 51 | 157 | 1.7 | 1.7 | 0.01 | 0.01 | 0.01 | 87 | 1008.7 |
| 20260505221035 | 51 | 180 | 0.0 | 0.0 | 0.01 | 0.01 | 0.01 | 89 | 1009.5 |
| 20260505220032 | 51 | 180 | 0.0 | 1.7 | 0.01 | 0.01 | 0.01 | 90 | 1009.2 |
| 20260505215022 | 51 | 247 | 0.0 | 0.0 | 0.01 | 0.01 | 0.01 | 90 | 1008.9 |
| 20260505214017 | 51 | 247 | 0.0 | 1.7 | 0.01 | 0.01 | 0.01 | 89 | 1009.0 |
| 20260505213010 | 51 | 247 | 0.9 | 1.7 | 0.01 | 0.01 | 0.01 | 89 | 1009.4 |
| 20260505212005 | 51 | 202 | 0.0 | 0.0 | 0.00 | 0.00 | 0.00 | 88 | 1009.1 |
| 20260505211001 | 51 | 135 | 0.0 | 3.5 | 0.00 | 0.00 | 0.00 | 88 | 1008.4 |
| 20260505205952 | 51 | 180 | 0.9 | 3.5 | 0.00 | 0.00 | 0.00 | 87 | 1008.6 |
| 20260505204946 | 52 | 202 | 0.0 | 1.7 | 0.00 | 0.00 | 0.00 | 87 | 1008.5 |
| 20260505203940 | 52 | 135 | 1.7 | 3.5 | 0.00 | 0.00 | 0.00 | 85 | 1008.4 |
| 20260505202934 | 53 | 135 | 0.9 | 5.2 | 0.00 | 0.00 | 0.00 | 83 | 1008.3 |